Location: Vancouver
(49.2500°N, 123.1330°W)
Time: 15:44:24
(UTC-07:00)

Cosmos 2333 Rocket - Visible Passes

Search period start: 26 June 2016 00:00
Search period end: 06 July 2016 00:00
Orbit: 840 x 862 km, 70.8° (Epoch: 26 June)

Date Brightness Start Highest point End Pass type
(mag) Time Alt. Az. Time Alt. Az. Time Alt. Az.
26 Jun 3.2 00:22:58 10° NW 00:28:06 34° WSW 00:31:11 20° SSW visible
26 Jun 2.9 22:26:09 10° NNW 22:31:44 48° NE 22:37:11 10° SE visible
27 Jun 3.3 00:10:44 10° NW 00:15:52 34° WSW 00:19:11 19° SSW visible
27 Jun 2.9 22:13:56 10° NNW 22:19:31 48° NE 22:25:03 10° SE visible
27 Jun 3.3 23:58:30 10° NW 00:03:38 34° WSW 00:07:14 18° SSW visible
28 Jun 2.8 22:01:42 10° NNW 22:07:16 48° NE 22:12:49 10° SE visible
28 Jun 3.3 23:46:16 10° NW 23:51:24 34° WSW 23:55:18 16° SSW visible
29 Jun 3.4 23:34:03 10° NW 23:39:10 34° WSW 23:43:25 14° SSW visible
30 Jun 3.4 23:21:48 10° NW 23:26:56 34° WSW 23:31:34 12° SSW visible
01 Jul 3.4 23:09:34 10° NW 23:14:42 34° WSW 23:19:45 10° S visible
02 Jul 3.5 22:57:20 10° NW 23:02:28 34° WSW 23:07:36 10° S visible
03 Jul 3.5 22:45:06 10° NW 22:50:14 34° WSW 22:55:21 10° S visible
04 Jul 3.5 22:32:53 10° NW 22:38:00 34° WSW 22:43:07 10° S visible
05 Jul 3.6 22:20:38 10° NW 22:25:46 34° WSW 22:30:53 10° S visible
